Location: Haliburton Scout Reserve
(45.0900°N, 78.3200°W)
Time: 13:28:00
(UTC-05:00)

deb Explorer IX - Visible Passes

Search period start: 07 February 2023 00:00
Search period end: 17 February 2023 00:00
Orbit: 534 x 1048 km, 38.8° (Epoch: 05 February)

Date Brightness Start Highest point End Pass type
(mag) Time Alt. Az. Time Alt. Az. Time Alt. Az.
07 Feb ? 04:51:31 26° SE 04:51:31 26° SE 04:53:44 10° ESE visible
07 Feb ? 06:32:15 10° WSW 06:35:23 21° SSW 06:38:26 10° SSE visible
08 Feb ? 04:20:24 14° ESE 04:20:24 14° ESE 04:21:07 10° ESE visible
08 Feb ? 06:01:02 18° SW 06:02:43 23° SSW 06:05:54 10° SSE visible
09 Feb ? 05:29:56 25° SSW 05:29:59 25° SSW 05:33:21 10° SE visible
10 Feb ? 04:58:49 21° SSE 04:58:49 21° SSE 05:00:46 10° SE visible
11 Feb ? 04:27:43 12° SE 04:27:43 12° SE 04:28:07 10° SE visible
11 Feb ? 06:08:41 10° SW 06:09:32 10° SSW 06:10:22 10° SSW visible
12 Feb ? 05:37:17 12° SSW 05:37:17 12° SSW 05:38:28 10° S visible
